User: anonymous   Login
Location: Unspecified
(0.0000°N, 0.0000°E)
Time: 07:26:43
(UTC+00:00)
Language:

ZACube-1 - Orbit

View from above orbital plane
View from above orbital plane
View from above satellite
View from above satellite

Ground track
Ground track

The orbit data is extracted from the following two-line orbital elements,

1 39417U 13066B   21260.77454121  .00000322  00000-0  46339-4 0  9998
2 39417  97.6020 240.3617 0057469 217.3624 142.3587 14.81593846422747
Epoch (UTC): 17 September 2021 18:35:20
Eccentricity: 0.0057469
inclination: 97.6020°
perigee height: 584 km
apogee height: 664 km
right ascension of ascending node: 240.3617°
argument of perigee: 217.3624°
revolutions per day: 14.81593846
mean anomaly at epoch: 142.3587°
orbit number at epoch: 42274

The dashed part of the orbit path shows where the satellite is in the earth's shadow,  

DLR